ELEKTRON 1 DEB, 750

Orbit data source: Space-Track

ELEKTRON 1 DEB, 750 is space debris in LEO originally from a launch on Thu, 30 Jan 1964 UTC launched from the Tyuratam Missile And Space Complex (TTMTR). Debris objects in space refer to the collection of defunct objects orbiting the Earth. Examples of debris include non-operational satellites, rocket bodies, and fragments generated from explosions, collisions, or faulty payload assembly.

Loading next visibility...
Identifier
750, 1964-006C
Orbit
LEO
Country
Flag of CISCIS
Related business
Manufacturer
OKB-1
Mission
Spacecraft
Bus & Motor
ADAPTER, Unknown motor
Mass
Unknown
Launch date (UTC)
1964-01-30 (62 years ago)
Launch vehicle
Unknown
Launch site
Tyuratam Missile And Space Complex (TTMTR)
Object type
Payload
Rocket body
Debris
Shape & HBR
Unknown
Radar Cross Section
Medium (>0.1 m² and <1 m²)

Expand to show TLE details & history
Last TLE update: 1 day ago

TLE from 1 day ago
0 ELEKTRON 1 DEB
1 00750U 64006C   25241.97279865  .00013099  00000-0  14728-2 0  9991
2 00750  60.7689 331.9131 1425618 284.5124  60.2250 12.38569317810395
Epoch: 2025-08-29T23:20Z
TLE epoch observation values (Epoch: 2025-08-29T23:20:49.803Z)
Latitude
-0.00003°
Longitude
3.2918°
Altitude
1,088.905 km
Speed
7.503 km/s
True Right ascension
22h 07m 39s
True Declination
0° 00' 00"
Sunlit
Object was in full shadow at epoch
Visualization orbit readout
Latitude
Unknown
Longitude
Unknown
Altitude
Unknown
Speed
Unknown
Apparent Right ascension
Unknown
Apparent Declination
Unknown
Sunlit
N/A
Visualization observer readout
Local Sidereal Time
15:57:42
Azimuth
Unknown
Elevation
Unknown
Doppler factor
Unknown
Orbital elements
Apogee altitude
2,636.672 km
Perigee altitude
387.048 km
Semi-major axis
7,889.997 km
Eccentricity
0.14256
Inclination
60.7689°
RAAN
331.9131°
Arg. of periapsis
284.5124°
True anomaly
75.58733°
Mean anomaly
60.225°
Eccentric anomaly
67.78699°
Mean motion
3.09691 °/min
Orbital period
116.25 mins
BSTAR
0.0014728
Loading maneuver chart data...
Computing Atmospheric mass density...

Documentation

Showing up to 5 results
|